This is the latest recevied weather packets stored in our database for station/object WA6OOO. If no packets are shown the sender has not sent any weather packets the latest 10 day(s).
| Time | Temp. | Humidity | Pressure | Rain* | Wind** | Luminosity | Snow |
|---|---|---|---|---|---|---|---|
| 1788116851 | 25.56° C | 68% | 1016.3 hPa | 0 mm | - | 713 W/m² | - |
| 1788116546 | 25.56° C | 67% | 1016.2 hPa | 0 mm | - | 708 W/m² | - |
| 1788116244 | 25.56° C | 66% | 1016.4 hPa | 0 mm | - | 678 W/m² | - |
| 1788115940 | 26.11° C | 65% | 1016.3 hPa | 0 mm | - | 544 W/m² | - |
| 1788115639 | 26.11° C | 66% | 1016.4 hPa | 0 mm | - | 774 W/m² | - |
| 1788115339 | 25° C | 67% | 1016.4 hPa | 0 mm | - | 546 W/m² | - |
| 1788115034 | 25.56° C | 66% | 1016.4 hPa | 0 mm | - | 518 W/m² | - |
| 1788114729 | 25.56° C | 66% | 1016.3 hPa | 0 mm | - | 597 W/m² | - |
| 1788114424 | 25.56° C | 65% | 1016.4 hPa | 0 mm | - | 709 W/m² | - |
| 1788114120 | 25.56° C | 65% | 1016.3 hPa | 0 mm | - | 512 W/m² | - |
| 1788113816 | 25.56° C | 63% | 1016.2 hPa | 0 mm | - | 227 W/m² | - |
| 1788113516 | 25.56° C | 65% | 1016.2 hPa | 0 mm | - | 584 W/m² | - |
| 1788113215 | 25° C | 66% | 1016.3 hPa | 0 mm | - | 277 W/m² | - |
| 1788112910 | 25° C | 67% | 1016.3 hPa | 0 mm | - | 341 W/m² | - |
| 1788112609 | 25° C | 66% | 1016.3 hPa | 0 mm | - | 551 W/m² | - |
| 1788112305 | 25° C | 67% | 1016.4 hPa | 0 mm | - | 247 W/m² | - |
| 1788112000 | 25° C | 63% | 1016.3 hPa | 0 mm | - | 188 W/m² | - |
| 1788111696 | 25.56° C | 64% | 1016.3 hPa | 0 mm | - | 489 W/m² | - |
| 1788111390 | 25° C | 65% | 1016.2 hPa | 0 mm | - | 457 W/m² | - |
| 1788111085 | 25° C | 66% | 1016.2 hPa | 0 mm | - | 613 W/m² | - |
| 1788110782 | 24.44° C | 64% | 1016.2 hPa | 0 mm | - | 594 W/m² | - |
| 1788110479 | 25° C | 61% | 1016.2 hPa | 0 mm | - | 182 W/m² | - |
| 1788110173 | 25° C | 62% | 1016.3 hPa | 0 mm | - | 395 W/m² | - |
| 1788109873 | 25° C | 61% | 1016.1 hPa | 0 mm | - | 292 W/m² | - |
| 1788109568 | 25° C | 62% | 1016.1 hPa | 0 mm | - | 564 W/m² | - |
* Rain latest hour (hover to see other rain measurements)
** Current wind speed in m/s (hover to see current wind gust speed)